Bei Facebook empfehlenBei Twitter postenGoogle plusPinterest

Das Wetter im Erzgebirge am 03.01.2017

Wetter und Klima am 03.01.2017 Holzhau im Erzgebirge (630m ü.NN)
Letzte gemessene Temperatur und Uhrzeit der Messung23:45:00 Uhr-1.10 °C
Temperatur (Maximum / Höchstwert) und Uhrzeit der Messung14:15:00 Uhr-0.80 °C
Temperatur (Minimum / Tiefstwert) und Uhrzeit der Messung00:30:00-3.30 °C
Errechneter Absolutwert der Temperaturschwankungen zwischen Tmin und Tmax des Tages2.50 K
Errechnete Tagesmitteltemperatur-1.85604 °C
Gesamt - Niederschlag des Tages (in flüssiger Form)968.66 Liter / m²
Luftdruck (Maximum / Höchstwert) und Zeitpunkt der Messung10:30:00 Uhr1015.80 hPa
Luftdruck (Minimum / Tiefstwert) und Zeitpunkt der Messung23:45:00 Uhr1005.40 hPa
Errechneter Absolutwert der Luftdruckschwankungen des Tages10.40 hPa
Höchste gemessene Windgeschwindigkeit und Uhrzeit der Messung20:15:00 Uhr13.32 km/h
Errechnete Windhäufigkeit in Relation zu den Messwerten des Tages41.75824 %
Niedrigste Windkühle (Windchill) und Zeitpunkt der Messung20:15:00 Uhr-6.00 °C
Taupunkt (Maximum / Höchstwert) und Uhrzeit der Messung23:45:00 Uhr-2.20 °C
Taupunkt (Minimum / Tiefstwert) und Uhrzeit der Messung00:30:00-4.10 °C
Anzahl der automatisch eingelesenen Messwerte 91

Detaillierte Wetter- und Klima- Messwerte für den 03.01.2017 in Holzhau im Erzgebirge (630m ü.NN)
ZeitTemperaturLuftdruckRel. LuftfeuchteWindWindrichtungWindchillTaupunktNiederschlag l/m²
23:45:00-1.10 °C1005.40 hPa93.00 %3.96 km/hN-1.10 °C-2.20 °C 
23:30:00-1.10 °C1005.80 hPa92.00 %9.36 km/hNW-4.40 °C-2.40 °C 
23:15:00-1.20 °C1006.10 hPa92.00 %3.24 km/hNNO-1.20 °C-2.50 °C 
23:00:00-1.20 °C1006.60 hPa92.00 %5.76 km/hN-3.30 °C-2.50 °C 
22:45:00-1.30 °C1006.40 hPa92.00 %5.04 km/hN-3.10 °C-2.60 °C 
22:30:00-1.40 °C1006.80 hPa91.00 %10.08 km/hN-5.00 °C-2.80 °C 
22:15:00-1.50 °C1006.80 hPa91.00 %5.40 km/hN-3.50 °C-2.90 °C 
22:00:00-1.60 °C1007.40 hPa91.00 %2.16 km/hONO-1.60 °C-3.00 °C 
21:45:00-1.60 °C1007.60 hPa91.00 %7.56 km/hN-4.50 °C-3.00 °C 
21:30:00-1.60 °C1007.90 hPa91.00 %11.52 km/hN-5.60 °C-3.00 °C 
21:15:00-1.60 °C1008.10 hPa91.00 %3.24 km/hNNW-1.60 °C-3.00 °C 
21:00:00-1.60 °C1008.50 hPa91.00 %5.76 km/hN-3.80 °C-3.00 °C 
20:45:00-1.60 °C1008.70 hPa91.00 %7.20 km/hNNW-4.30 °C-3.00 °C 
20:30:00-1.70 °C1008.90 hPa90.00 %6.12 km/hN-4.00 °C-3.30 °C 
20:15:00-1.60 °C1009.20 hPa90.00 %13.32 km/hN-6.00 °C-3.20 °C 
20:00:00-1.50 °C1009.60 hPa89.00 %7.20 km/hNNO-4.20 °C-3.30 °C 
19:45:00-1.30 °C1009.70 hPa88.00 %8.28 km/hN-4.40 °C-3.20 °C 
19:30:00-1.20 °C1009.80 hPa88.00 %-3.10 °C 
19:15:00-1.10 °C1010.00 hPa88.00 %6.84 km/hN-3.60 °C-3.00 °C 
19:00:00-1.10 °C1010.30 hPa88.00 %13.32 km/hN-5.40 °C-3.00 °C 
18:45:00-1.10 °C1010.40 hPa89.00 %7.92 km/hNNO-4.00 °C-2.90 °C 
18:30:00-1.10 °C1010.60 hPa90.00 %5.40 km/hN-3.00 °C-2.70 °C 
18:15:00-1.10 °C1010.70 hPa90.00 %4.68 km/hWSW-1.10 °C-2.70 °C 
18:00:00-1.10 °C1010.90 hPa90.00 %5.40 km/hN-3.00 °C-2.70 °C 
17:45:00-1.10 °C1011.10 hPa90.00 %10.44 km/hN-4.70 °C-2.70 °C 
17:30:00-1.10 °C1011.30 hPa90.00 %7.20 km/hN-3.80 °C-2.70 °C 
17:15:00-1.10 °C1011.70 hPa90.00 %8.28 km/hN-4.10 °C-2.70 °C 
17:00:00-1.10 °C1011.70 hPa89.00 %6.12 km/hO-3.30 °C-2.90 °C 
16:45:00-1.10 °C1011.80 hPa89.00 %12.96 km/hNW-5.40 °C-2.90 °C 
16:30:00-0.90 °C1011.90 hPa89.00 %1.08 km/hN-0.90 °C-2.70 °C 
16:15:00-0.90 °C1012.20 hPa89.00 %8.64 km/hNW-4.00 °C-2.70 °C 
16:00:00-1.10 °C1013.10 hPa89.00 %7.20 km/hNNO-3.80 °C-2.90 °C 
15:45:00-1.00 °C1013.00 hPa89.00 %-2.80 °C 
15:30:00-1.00 °C1013.00 hPa88.00 %5.76 km/hONO-3.10 °C-2.90 °C 
15:15:00-0.80 °C1012.90 hPa88.00 %2.16 km/hN-0.80 °C-2.70 °C 
15:00:00-0.90 °C1013.20 hPa88.00 %3.96 km/hNNW-0.90 °C-2.80 °C 
14:45:00-0.90 °C1013.50 hPa88.00 %-2.80 °C 
14:33:00-1.10 °C1013.70 hPa88.00 %-3.00 °C 
14:30:00-1.10 °C1013.70 hPa88.00 %-3.00 °C 
14:15:00-0.80 °C1012.90 hPa88.00 %2.16 km/hN-0.80 °C-2.70 °C 
14:00:00-0.90 °C1013.20 hPa88.00 %3.96 km/hNNW-0.90 °C-2.80 °C 
13:45:00-0.90 °C1013.50 hPa88.00 %-2.80 °C 
13:33:00-1.20 °C1014.20 hPa87.00 %2.16 km/hN-1.20 °C-3.30 °C 
13:30:00-1.20 °C1014.20 hPa87.00 %2.16 km/hN-1.20 °C-3.30 °C 
11:30:00-1.10 °C1015.30 hPa93.00 %-2.20 °C968.66
11:15:00-1.40 °C1015.30 hPa94.00 %-2.30 °C968.66
11:00:00-1.50 °C1015.60 hPa94.00 %-2.40 °C968.66
10:45:00-1.60 °C1015.60 hPa94.00 %-2.50 °C968.66
10:30:00-1.60 °C1015.80 hPa95.00 %-2.40 °C968.66
10:15:00-1.60 °C1015.60 hPa95.00 %-2.40 °C968.66
10:00:00-1.70 °C1015.60 hPa95.00 %-2.50 °C968.66
09:45:00-1.70 °C1015.30 hPa95.00 %-2.50 °C968.66
09:30:00-1.90 °C1015.20 hPa96.00 %-2.50 °C968.66
09:15:00-1.90 °C1015.10 hPa96.00 %-2.50 °C968.66
09:00:00-2.10 °C1015.10 hPa96.00 %-2.70 °C968.66
08:45:00-2.10 °C1015.10 hPa96.00 %-2.70 °C968.66
08:30:00-2.10 °C1014.80 hPa96.00 %-2.70 °C968.66
08:15:00-2.20 °C1014.90 hPa95.00 %-3.00 °C968.66
08:00:00-2.20 °C1015.00 hPa95.00 %-3.00 °C968.66
07:45:00-2.20 °C1014.80 hPa95.00 %-3.00 °C968.66
07:30:00-2.30 °C1014.50 hPa95.00 %-3.10 °C968.66
07:15:00-2.40 °C1014.60 hPa95.00 %-3.20 °C968.66
07:00:00-2.40 °C1014.80 hPa95.00 %-3.20 °C968.66
06:45:00-2.40 °C1014.80 hPa95.00 %-3.20 °C968.66
06:30:00-2.40 °C1014.80 hPa95.00 %-3.20 °C968.66
06:15:00-2.40 °C1014.70 hPa95.00 %-3.20 °C968.66
06:00:00-2.40 °C1014.70 hPa95.00 %-3.20 °C968.66
05:45:00-2.40 °C1014.80 hPa95.00 %-3.20 °C968.66
05:30:00-2.40 °C1014.90 hPa95.00 %-3.20 °C968.66
05:15:00-2.40 °C1015.00 hPa95.00 %-3.20 °C968.66
05:00:00-2.50 °C1015.10 hPa95.00 %-3.30 °C968.66
04:45:00-2.50 °C1015.00 hPa95.00 %-3.30 °C968.66
04:30:00-2.60 °C1015.10 hPa95.00 %-3.40 °C968.66
04:15:00-2.70 °C1015.10 hPa95.00 %-3.50 °C968.66
04:00:00-2.70 °C1015.20 hPa95.00 %-3.50 °C968.66
03:45:00-2.80 °C1015.30 hPa95.00 %-3.60 °C968.66
03:30:00-3.10 °C1015.40 hPa95.00 %-3.90 °C968.66
03:15:00-3.10 °C1015.50 hPa95.00 %-3.90 °C968.66
03:00:00-3.20 °C1015.40 hPa95.00 %-4.00 °C968.66
02:45:00-3.20 °C1015.50 hPa95.00 %-4.00 °C968.66
02:30:00-3.20 °C1015.60 hPa95.00 %-4.00 °C968.66
02:15:00-3.20 °C1015.40 hPa95.00 %-4.00 °C968.66
02:00:00-3.10 °C1015.40 hPa95.00 %-3.90 °C968.66
01:45:00-3.10 °C1015.20 hPa95.00 %-3.90 °C968.66
01:30:00-3.20 °C1015.30 hPa95.00 %-4.00 °C968.66
01:15:00-3.20 °C1015.50 hPa95.00 %-4.00 °C968.66
01:00:00-3.20 °C1015.50 hPa95.00 %-4.00 °C968.66
00:45:00-3.20 °C1015.20 hPa95.00 %-4.00 °C968.66
00:30:00-3.30 °C1015.20 hPa95.00 %-4.10 °C968.66
00:15:00-3.30 °C1015.10 hPa95.00 %-4.10 °C968.66
00:00:00-3.20 °C1015.20 hPa95.00 %-4.00 °C968.66

Permanenter Link zu dieser Seite: Wetter im Erzgebirge am 03.01.2017
Performance-Info: Die Erstellung der Seite / Statistik(en) / Tabelle(n) erforderte 5 Datenbankserver-Abfrage(n) und dauerte 101 Millisekunden. (Dieser Messwert ist von der Gesamt-Auslastung des Servers abhängig.)
Erzgebirge - Wetter | Erzgebirge - Wetter (Mobilgeräte) | Komplette Klimadatenbank